Regional Weather Roundup
Issued by NWS

Home | Current Version | Previous Version | Graphics & Text | Print | Product List | Glossary On
Versions: 1 2 3 4 5 6 7 8 9 10 11 12 13 14 15 16 17 18 19 20 21 22 23 24 25 26 27 28 29 30 31 32 33 34 35 36 37 38 39 40 41 42 43 44 45 46 47 48 49 50
000
ASUS43 KMPX 302001
RWRMN
WEATHER ROUNDUP FOR MINNESOTA
NATIONAL WEATHER SERVICE TWIN CITIES/CHANHASSEN MN
300 PM CDT THU MAR 30 2017


NOTE: "FAIR" INDICATES FEW OR NO CLOUDS BELOW 12,000 FEET WITH NO
SIGNIFICANT WEATHER AND/OR OBSTRUCTIONS TO VISIBILITY. N/A MEANS
CURRENT SKY AND/OR WEATHER CONDITIONS ARE NOT AVAILABLE.

MNZ060>063-068>070-302100-
   Twin Cities Metro

CITY           SKY/WX    TMP DP  RH WIND       PRES   REMARKS
TWIN CITIES    CLOUDY    46  34  62 E14G23    29.83S
ST PAUL        CLOUDY    46  35  65 E13G18    29.84F
CRYSTAL        CLOUDY    47  33  58 E9        29.82F
BLAINE         CLOUDY    48  36  61 E12G17    29.84S
LAKEVILLE      CLOUDY    41  36  81 NE15      29.81F
EDEN PRAIRIE   CLOUDY    46  35  65 E12       29.82S
SOUTH ST PAUL  CLOUDY    45  35  67 NE10      29.83S
LAKE ELMO      CLOUDY    45  36  70 E8        29.84F
$$
MNZ001>005-007-008-013>017-022>024-027-028-302100-
   Northwest Minnesota

CITY           SKY/WX    TMP DP  RH WIND       PRES   REMARKS
BEMIDJI        SUNNY     52  32  46 E12       29.87F
HALLOCK        MOSUNNY   50  45  81 S14       29.88F
ROSEAU         MOSUNNY   54  39  58 S10       29.90S
WARROAD        SUNNY     46  39  76 NE8       29.91S
THIEF RVR FALL MOSUNNY   50  36  58 SE7       29.90F
CROOKSTON      SUNNY     48  39  71 SW5       29.90F
FOSSTON        SUNNY     55  36  47 E8        29.88F
DETROIT LAKES  SUNNY     54  30  40 S5        29.85F
MOORHEAD       MOSUNNY   54  37  54 S5        29.86F
PARK RAPIDS    SUNNY     52  28  39 E6        29.85F
MAHNOMEN       FAIR      52  33  48 S5        29.86F
$$
MNZ006-009>011-018-025>026-302100-
   North Central Minnesota

CITY           SKY/WX    TMP DP  RH WIND       PRES   REMARKS
BAUDETTE       MOSUNNY   56  33  42 S5        29.89F
FLAG ISLAND    MOSUNNY   43  36  75 CALM      29.91F
INTL FALLS     SUNNY     53  33  46 E3        29.90F
WASKISH        MOSUNNY   48  37  66 NW7       29.89S
BIG FORK       SUNNY     55  30  38 NE5       29.89F
LONGVILLE      SUNNY     52  30  43 E5        29.87F
GRAND RAPIDS   SUNNY     51  28  41 NE5       29.89F
CRANE LAKE     SUNNY     54  28  37 NE3       29.92F
ORR            SUNNY     55  25  30 CALM      29.88F
COOK           SUNNY     52  30  43 E6        29.90F
WALKER         FAIR      48  32  55 E7        29.88F
$$
MNZ012-019>021-037-302100-
   Northeast Minnesota

CITY           SKY/WX    TMP DP  RH WIND       PRES   REMARKS
DULUTH         SUNNY     48  31  51 E14       29.89F
ELY            SUNNY     52  19  28 SE10      29.91F
HIBBING        SUNNY     52  28  39 E13       29.88F
EVELETH        SUNNY     53  14  21 NE9       29.90F
DULUTH HARBOR  SUNNY     37  34  87 NE24      29.94F
TWO HARBORS    SUNNY     48  34  57 NE9       29.91F
GRAND MARAIS     N/A     39  32  76 NE10      29.99F
G MARAIS ARPRT SUNNY     41  18  38 E10       29.96S
$$
MNZ029>031-032-039>041-046>048-054>057-064-302100-
   West Central Minnesota

CITY           SKY/WX    TMP DP  RH WIND       PRES   REMARKS
FERGUS FALLS   SUNNY     54  30  40 E6        29.87F
WHEATON        CLOUDY    48  34  57 E8        29.87F
MORRIS         CLOUDY    50  36  57 E15       29.84F
ALEXANDRIA     CLOUDY    50  33  52 E13       29.85F
ELBOW LAKE     CLOUDY    53  34  49 SE9       29.85F HAZE
WADENA         SUNNY     52  28  40 E9        29.84F
GLENWOOD       PTSUNNY   48  36  61 NE14G22   29.85S
APPLETON       CLOUDY    48  36  61 NE5       29.84F
BENSON         CLOUDY    52  30  43 E3        29.86S
ORTONVILLE     CLOUDY    46  36  66 NE6       29.84F
MADISON        CLOUDY    48  39  71 NE6       29.84F
WILLMAR        CLOUDY    48  37  66 NE13      29.85S
$$
MNZ033>034-036-042>043-049>051-058-059-302100-
   Central Minnesota

CITY           SKY/WX    TMP DP  RH WIND       PRES   REMARKS
ST CLOUD       CLOUDY    49  35  58 E13G18    29.85R
SAUK CENTRE    CLOUDY    47  34  59 NE10      29.85S
PAYNESVILLE    CLOUDY    48  34  58 E10       29.84S
AITKIN         SUNNY     54  25  32 E8G17     29.85S
PINE RIVER     SUNNY     52  32  46 N7        29.90F
BRAINERD       MOSUNNY   51  31  46 NE7G17    29.87S
STAPLES        SUNNY     52  28  40 NE6       29.85F
LONG PRAIRIE   CLOUDY    46  32  57 NE8       29.86S
LITTLE FALLS   CLOUDY    46  32  57 E7        29.86S
LITCHFIELD     CLOUDY    48  37  66 NE10      29.84S
BUFFALO        CLOUDY    47  35  63 N9        29.84F
MAPLE LAKE     CLOUDY    49  37  64 E10       29.85S
HUTCHINSON     CLOUDY    47  38  72 NE13      29.83S
$$
MNZ037-044-045-052-053-302100-
   East Central Minnesota

CITY           SKY/WX    TMP DP  RH WIND       PRES   REMARKS
PRINCETON      CLOUDY    50  34  53 NE8       29.85S
MORA           CLOUDY    48  32  53 E7        29.87S
CAMBRIDGE      CLOUDY    48  36  61 N8        29.84S
RUSH CITY      CLOUDY    48  34  57 E7        29.86S
MOOSE LAKE     SUNNY     50  32  50 NE9G16    29.87R
CLOQUET        SUNNY     46  25  42 E9G16     29.89F
MCGREGOR       SUNNY     54  28  37 E12G20    29.88S
$$
MNZ071>073-080-081-089-090-097-098-302100-
   Southwest Minnesota

CITY           SKY/WX    TMP DP  RH WIND       PRES   REMARKS
MONTEVIDEO     CLOUDY    48  37  66 E6        29.83F
GRANITE FALLS  CLOUDY    48  38  68 NE8       29.85S
CANBY          CLOUDY    46  38  74 CALM      29.85S
MARSHALL       CLOUDY    44  38  79 NE13      29.83R
REDWOOD FALLS  CLOUDY    46  37  71 NE9       29.82S
OLIVIA         CLOUDY    50  37  62 NE12      29.82S
PIPESTONE      CLOUDY    41  36  81 NE13      29.79S
WINDOM         CLOUDY    39  37  93 NE14      29.79R
WORTHINGTON    CLOUDY    39  37  92 NE15      29.78S
JACKSON          N/A     37  37 100 NE15      29.78S
TRACY          CLOUDY    42  39  89 NE13      29.82S
SLAYTON        CLOUDY    39  37  94 NE12G17   29.80S
$$
MNZ065>067-074>077-082>085-091>093-302100-
   South Central Minnesota

CITY           SKY/WX    TMP DP  RH WIND       PRES   REMARKS
MANKATO        CLOUDY    40  36  86 NE10G20   29.80F
NEW ULM        CLOUDY    43  36  75 E10G17    29.81S
ST JAMES       CLOUDY    39  37  93 NE13      29.80F
FAIRMONT       CLOUDY    39  37  92 NE14      29.78S
GLENCOE        CLOUDY    46  39  77 NE9G16    29.82S
FARIBAULT      CLOUDY    41  37  87 NE9       29.81S
OWATONNA       CLOUDY    39  36  87 E15G23    29.79S
WASECA         CLOUDY    39  36  87 NE14G21   29.80S
ALBERT LEA     LGT RAIN  37  37 100 NE18      29.75F
$$
MNZ078>079-086>088-094>096-302100-
   Southeast Minnesota

CITY           SKY/WX    TMP DP  RH WIND       PRES   REMARKS
ROCHESTER      LGT RAIN  38  37  97 E15       29.77S
RED WING       CLOUDY    43  36  75 E10       29.81S
STANTON        CLOUDY    42  37  80 NE13      29.80S
DODGE CENTER   CLOUDY    39  36  87 E15       29.78R
WINONA         DRIZZLE   41  36  81 E12G17    29.81S
AUSTIN         CLOUDY    37  36  93 E14G21    29.75F
PRESTON        CLOUDY    37  34  90 NE12      29.75F
$$
ABBREVIATIONS USED IN REMARKS
   TC - TEMPERATURES IN CELSIUS
  WCI - WIND CHILL INDEX
   HX - HEAT INDEX
  VSB - VISIBILITY
$$



USA.gov is the U.S. government's official web portal to all federal, state and local government web resources and services.